Regional Weather Roundup
Issued by NWS Wilmington, NC

Home | Current Version | Previous Version | Text Only | Print | Product List | Glossary On
Versions: 1 2 3 4 5 6 7 8 9 10 11 12 13 14 15 16 17 18 19 20 21 22 23 24 25 26 27
000
ASUS42 KILM 192013
RWRILM
RWRILM
REGIONAL HOURLY WEATHER ROUNDUP
NATIONAL WEATHER SERVICE WILMINGTON NC
400 PM EDT THU APR 19 2018

NOTE: "FAIR" INDICATES FEW OR NO CLOUDS BELOW 12,000 FEET WITH NO
SIGNIFICANT WEATHER AND/OR OBSTRUCTIONS TO VISIBILITY.

...............WFO WILMINGTON COUNTY WARNING AREA...............

......COASTAL NC AND SC COUNTIES......

CITY           SKY/WX    TMP DP  RH WIND       PRES   REMARKS
WILMINGTON     FAIR      84  49  29 W23G32    29.80S
N MYRTLE BEACH FAIR      83  52  34 W18G28    29.83S
MYRTLE BEACH   FAIR      83  56  39 W22G30    29.86S

......INLAND NC AND SC COUNTIES.......

CITY           SKY/WX    TMP DP  RH WIND       PRES   REMARKS
LUMBERTON      PTSUNNY   79  51  37 NW16G29   29.83R
ELIZABETHTOWN  FAIR      82  47  28 MISG      29.82S
WHITEVILLE     FAIR      82  50  32 W13G18    29.83S
FLORENCE       FAIR      83  46  27 W17G31    29.86S
DARLINGTON     FAIR      82  40  22 SW17G32   29.87R
KINGSTREE      FAIR      81  41  24 W18G29    29.88S
HARTSVILLE     FAIR      81  36  19 SW10G23   29.87S
BENNETTSVILLE  FAIR      81  43  26 NW17G23   29.86R
CONWAY         FAIR      81  50  34 W9G22     29.85S HAZE
GEORGETOWN     FAIR      81  54  39 W18G29    29.88S
MARION         FAIR      81  45  28 W17G30    29.86S HAZE

....................REST OF NORTH CAROLINA......................

.........EASTERN NC.........

CITY           SKY/WX    TMP DP  RH WIND       PRES   REMARKS
CAPE HATTERAS  FAIR      70  62  76 SW16G26   29.77S
JACKSONVILLE   PTSUNNY   82  52  35 W14G26    29.79R
MOREHEAD CITY  FAIR      70  61  73 SW29G36   29.79R
KENANSVILLE    PTSUNNY   79  54  41 NW13G21   29.81R
NEW BERN       CLOUDY    78  55  44 W13G23    29.78R
ELIZABETH CITY PTSUNNY   73  53  49 NW8       29.78R

.........CENTRAL NC.........

CITY           SKY/WX    TMP DP  RH WIND       PRES   REMARKS
RALEIGH DURHAM FAIR      67  39  35 NW17G30   29.93R
ROCKY MOUNT    FAIR      73  42  32 NW21G33   29.85R
ROANOKE RAPIDS NOT AVBL
FAYETTEVILLE   FAIR      80  42  25 NW16G28   29.83R
HOFFMAN        FAIR      75  40  28 NW16      29.89R

.........WESTERN NC.........

CITY           SKY/WX    TMP DP  RH WIND       PRES   REMARKS
CHARLOTTE      FAIR      67  35  30 NW20G29   29.99R
GREENSBORO     FAIR      59  33  37 N17G29    30.02R
HICKORY        NOT AVBL
BOONE          NOT AVBL
ASHEVILLE      NOT AVBL

.....................REST OF SOUTH CAROLINA.....................

.........EASTERN SC.........

CITY           SKY/WX    TMP DP  RH WIND       PRES   REMARKS
CHARLESTON     FAIR      84  55  36 W21G33    29.90F
BEAUFORT MCAS  FAIR      84  58  40 W16G23    29.93F
HILTON HEAD    MOSUNNY   82  59  44 W17G23    29.94F

.........CENTRAL SC.........

CITY           SKY/WX    TMP DP  RH WIND       PRES   REMARKS
COLUMBIA       FAIR      80  38  22 W21G31    29.92R
ORANGEBURG     FAIR      81  47  30 W20G26    29.91F
SUMTER SHAW    FAIR      82  36  18 W18G29    29.87R

.........WESTERN SC.........

CITY           SKY/WX    TMP DP  RH WIND       PRES   REMARKS
GREENVILLE     NOT AVBL
ROCK HILL      FAIR      69  40  34 N17G26    29.97R
ANDERSON       FAIR      72  38  29 W13       29.99S
CLEMSON        NOT AVBL
GREENWOOD      FAIR      72  35  25 W10G24    29.98R


...................COASTAL AND OFFSHORE REPORTS..................

................LOCAL PIERS AND NC RESERVE................


STATION/POSITION TIME  SKY/WX   TEMP    WIND        PRES    VSBY
                                AIR SEA DIR/SP/G
                 (UTC)          (F)     (DEG/KT/KT) (MB)    (MI)
JOHNY MRCER PIER 1936            69 63  190/ 22/ 25 1009.2S
NC RESRV MASNBRO 1845            80     250/ 10     1010.0
OCEAN CREST PIER NOT AVBL
SPRINGMAID  PIER 1936                               1014.0S


................COASTAL AND OFFSHORE BUOYS................


STATION/POSITION TIME  SKY/WX   TEMP    WIND        PRES    VSBY
                                AIR SEA DIR/SP/G
                 (UTC)          (F)     (DEG/KT/KT) (MB)    (MI)
DIMNDSHOAL 41025 2000            69 68  230/ 23/ 29 1008.5
CAPE LOOKOUT     2000                   220/ 17/ 21 1009.0S
ONSLOW BAY 41036 NOT AVBL
ONSLOW BAY 41064 1908            68 66  210/ 19/ 25 1009.5F
ONSLOW BAY 41159 2000               66                N/A
WVE H/P(F/S)=  8/ 8

MASNBO INL 41110 1930               61                N/A
WVE H/P(F/S)=  4/ 5

WILM HARBR 41108 2000               61                N/A
WVE H/P(F/S)=  6/ 7

27SE WRITB 41037 1908            66 65  210/ 25/ 33 1010.6F
FRYING PAN 41013 2000            67 66  210/ 21/ 27 1011.7
SUNST NRSH 41024 1908            65 63  220/ 17/ 27 1010.7F
CAPRS NRSH 41029 1908            67 63  240/ 17/ 25 1012.9F
EDISTO     41004 2000            68 67  220/ 21/ 25 1013.2


..........OFFSHORE BUOYS BEYOND 100 NM OFFSHORE...........
.....IN A TRIANGLE---HAT TO BERMUDA TO BAHAMAS TO HAT.....


STATION/POSITION TIME  SKY/WX   TEMP    WIND        PRES    VSBY
                                AIR SEA DIR/SP/G
                 (UTC)          (F)     (DEG/KT/KT) (MB)    (MI)
150E HAT   41001 NOT AVBL
W BERMUDA  41048 1950               70  220/ 19/ 23 1018.0F
WVE H/P(F/S)=  8/ 8 SWL H/P/D(F/S/D)=  3/190/15

ATLANTIC S 41049 2000               76  170/ 12/ 16 1023.2
E BAHAMAS  41046 2000               80  130/ 10/ 14 1020.9
NE BAHAMAS 41047 1950                   240/  2/  4 1020.6F
WVE H/P(F/S)=  4/15 SWL H/P/D(F/S/D)=  3/ 80/15

120E CANVRL41010 1950            75 74  230/ 12/ 14 1018.5F
WVE H/P(F/S)=  3/ 5 SWL H/P/D(F/S/D)=  2/110/ 8


END




USA.gov is the U.S. government's official web portal to all federal, state and local government web resources and services.